Retour au catalogue

WORLDVIEW 3

ActifScienceSSO
NORAD 40115·PAYLOAD·🇺🇸 United States

Lancé Aug 13, 2014 depuis Vandenberg Space Force Base

Loading…

Prochains Passages (prochaines 24 heures)

TLE

FraisSource: Space-Track

Époque: Sep 14, 2026, 13:51 UTC

1 40115U 14048A   26257.57730093  .00000578  00000-0  73796-4 0  9990
2 40115  97.8495 331.1478 0002332  57.1825 302.9614 14.85139980655177

Suivez WORLDVIEW 3 en temps réel avec AllMySat

Download on the App Store